SCP
0 0 0 0 0 0 0 0 0 0 0 0 0 0 0 0 0 0 0 0 0 1 1 1 0 0 1 1 1 1 1 1 1 1 1 0 0 0 0 0 0 0 0 0
0 0 0 0 0 0 0 0 0 0 0 0 0 0 0 0 0 0 0 0 1 1 1 1 1 1 1 1 1 1 1 1 1 1 1 1 1 1 1 1 0 0 0 0
0 0 0 0 0 0 0 0 0 0 0 0 0 0 0 0 0 0 0 1 1 1 1 1 1 1 1 1 1 1 1 1 1 1 1 1 1 1 1 1 1 1 1 0
0 0 0 0 0 0 0 0 0 0 0 0 0 0 0 0 0 0 0 0 1 1 1 1 1 1 1 1 1 1 1 1 1 1 1 1 1 1 1 1 1 1 1 1
0 0 0 0 0 0 0 0 0 0 0 0 0 0 0 0 0 0 0 0 1 1 1 1 1 1 1 1 1 1 1 1 1 1 1 1 1 1 1 1 1 1 1 1
0 0 0 0 0 0 0 0 0 0 0 0 0 0 0 0 0 0 0 0 1 1 1 1 1 1 1 1 1 1 1 1 1 1 1 1 1 1 1 1 1 1 1 1
0 0 0 0 0 0 0 0 0 0 0 0 0 0 0 0 0 0 0 0 1 1 1 1 1 1 1 1 1 1 1 1 1 1 1 1 1 1 1 1 1 1 1 1
0 0 0 0 0 0 0 0 0 0 0 0 0 0 0 0 1 1 1 0 1 1 1 1 1 1 1 1 1 1 1 1 1 1 1 1 1 1 1 1 1 1 1 1
0 0 0 0 0 0 0 0 0 0 0 0 0 0 0 1 1 1 1 1 1 1 1 1 1 1 1 1 1 1 1 1 1 1 1 1 1 1 1 1 1 1 1 1
0 0 0 0 0 0 0 0 0 0 0 0 0 0 0 1 1 1 1 1 1 1 1 1 1 1 1 1 1 1 1 1 1 1 1 1 1 1 1 1 1 1 1 1
0 0 0 0 0 0 0 0 0 0 0 0 0 0 0 1 1 1 1 1 1 1 1 1 1 1 1 1 1 1 1 1 2 2 2 2 2 2 1 1 1 1 1 1
0 0 0 0 0 0 0 0 0 0 0 0 0 0 0 0 1 1 1 1 1 1 1 1 1 1 1 1 1 1 1 1 1 2 2 2 2 2 2 2 1 1 1 1
0 0 0 0 0 0 0 0 0 0 0 0 0 0 0 0 0 0 1 1 1 1 1 1 1 1 1 1 1 1 1 1 1 2 2 2 2 2 2 2 2 2 2 1
0 0 0 0 0 0 0 0 0 0 0 0 0 0 0 0 0 0 0 1 1 1 1 1 1 1 1 1 1 2 2 2 2 2 2 2 2 2 2 2 2 2 2 1
0 0 0 0 0 0 0 0 0 0 0 0 0 0 0 0 0 0 0 0 1 1 1 1 1 1 1 1 1 2 2 2 2 2 2 2 2 2 2 2 2 2 2 1
0 0 0 0 0 0 0 0 0 0 0 0 0 0 0 0 0 0 0 1 1 1 1 1 1 1 1 1 1 2 2 2 2 2 2 2 2 2 2 2 1 1 1 1
0 0 0 0 0 0 0 0 0 0 0 0 0 0 0 0 0 0 1 1 1 1 1 1 1 1 1 1 2 2 2 2 2 2 2 2 2 2 2 1 1 1 1 1
0 0 0 0 0 0 0 0 0 0 0 0 0 0 0 0 0 0 1 1 1 1 1 1 1 1 1 2 2 1 1 1 2 2 2 2 2 2 1 1 1 1 1 1
0 0 0 0 0 0 0 0 0 0 0 0 0 0 0 0 0 1 1 1 1 1 1 1 1 1 1 1 1 1 1 1 1 1 2 2 2 1 1 1 1 1 1 1
0 0 0 0 0 0 0 0 0 0 0 0 0 0 0 0 0 1 1 1 1 1 2 2 2 1 1 1 1 1 1 1 1 1 2 1 1 1 1 1 1 1 1 1
0 0 0 0 0 0 0 0 0 0 0 0 0 0 0 0 0 0 1 1 1 1 2 2 2 1 1 1 1 1 1 1 1 1 1 1 1 1 1 1 1 1 1 1
0 0 0 0 0 0 0 0 0 0 0 0 0 0 0 0 0 0 1 1 1 1 1 1 1 1 1 1 1 1 1 1 1 1 1 1 1 1 1 1 1 1 1 1
0 0 0 0 0 0 0 0 0 0 0 0 0 0 0 0 0 0 1 1 1 1 1 1 1 1 1 1 1 1 1 1 1 1 1 1 1 1 1 1 1 1 1 1
0 0 0 0 0 0 0 0 0 0 0 0 0 0 0 0 0 0 1 1 1 1 1 1 1 1 1 1 1 1 1 1 1 1 1 1 1 1 1 1 0 0 0 0
0 0 0 0 0 0 0 0 0 0 0 0 0 0 0 0 0 0 1 1 1 1 1 1 1 1 1 1 1 1 1 1 1 1 1 1 1 1 0 0 0 0 0 0
0 0 0 0 0 0 0 0 0 0 0 0 0 0 0 0 0 1 1 1 1 1 1 1 1 1 1 1 1 1 1 1 1 1 1 1 0 0 0 0 0 0 0 0
Wind_Speed
10 9 6 5 6 7 5 3 3 0 1 1 3 4 6 7 6 7 7 8 7 7 8 7 7 7 9 8 7 6 5 5 3 2 2 2 2 2 2 3 3 3 2 2
9 8 8 6 7 8 6 5 4 2 2 2 3 4 5 6 6 7 7 8 8 8 8 8 7 7 8 8 7 6 5 5 4 3 2 2 2 2 2 2 3 3 2 2
8 8 7 7 7 8 7 5 4 4 4 5 4 4 5 6 5 7 7 8 9 8 8 7 6 6 8 8 7 5 5 4 2 2 2 2 2 1 1 2 2 2 2 2
8 9 8 8 7 8 6 5 7 7 6 5 5 2 6 9 7 8 8 8 8 9 9 9 7 5 7 8 7 6 5 4 3 2 2 2 2 2 2 2 2 3 3 3
7 6 6 6 7 6 7 8 9 9 7 6 5 4 5 8 8 7 7 7 8 9 8 9 9 7 6 7 7 7 6 4 3 3 2 2 1 2 1 2 2 3 3 3
9 7 6 6 8 7 8 10 11 10 8 7 5 3 4 5 7 10 9 8 9 9 9 8 8 8 7 7 7 7 6 4 3 3 3 3 2 1 1 1 1 2 2 2
10 10 7 7 8 7 8 8 6 5 5 4 3 2 3 7 7 8 10 8 9 9 9 9 8 8 7 7 6 7 6 4 3 3 3 3 2 2 2 2 2 2 2 2
9 7 6 6 7 6 7 8 6 7 6 3 2 2 4 6 9 8 9 9 8 9 8 9 9 8 7 7 6 7 7 5 4 3 3 2 3 3 2 2 2 2 1 1
6 5 4 4 5 6 7 8 10 9 10 6 2 5 6 6 8 9 8 8 8 8 8 8 8 8 7 7 6 6 7 5 5 4 3 3 3 2 2 2 2 2 1 1
7 8 7 5 6 8 7 9 8 6 6 7 2 1 4 5 7 7 6 6 6 6 6 7 7 6 5 6 6 6 6 6 5 4 4 3 3 2 2 2 1 1 2 2
10 9 9 7 5 8 6 7 6 7 7 7 5 1 5 5 5 6 7 6 6 5 5 5 5 5 5 5 5 6 5 5 5 4 3 2 3 3 2 2 2 2 1 1
6 8 8 8 4 7 7 7 8 6 6 6 6 2 3 4 5 4 6 6 5 4 4 4 4 4 4 2 2 3 3 4 4 4 3 3 2 2 3 2 1 1 1 1
5 6 8 8 4 4 6 7 8 7 7 6 5 1 3 4 5 4 5 6 5 4 4 3 3 3 3 2 1 1 1 1 1 2 3 2 1 1 1 1 1 1 1 1
5 7 8 9 7 6 6 8 9 8 6 7 4 1 2 2 4 2 4 5 4 4 4 4 4 3 2 2 2 1 1 1 1 1 1 1 1 0 0 1 0 0 0 1
6 9 9 10 10 10 9 10 10 8 8 8 5 2 1 1 2 3 3 3 4 4 4 4 4 3 2 2 2 2 1 1 1 1 1 1 1 1 0 1 0 0 1 1
5 8 10 11 11 13 12 11 10 8 8 8 6 2 3 4 3 2 1 3 3 4 4 4 3 3 2 2 1 1 1 1 1 1 1 1 1 1 0 0 0 0 1 1
6 6 9 11 11 12 11 8 8 7 7 8 5 2 2 2 2 2 3 4 4 4 4 3 2 2 2 2 2 1 1 1 1 1 1 1 1 1 0 1 1 1 1 1
5 6 7 10 11 13 6 5 6 6 6 5 4 3 2 1 1 2 4 4 4 4 3 3 2 1 2 3 3 2 1 1 1 1 0 1 1 1 0 1 1 1 1 1
5 5 7 8 11 10 6 4 4 6 5 3 3 3 4 4 2 4 6 5 4 4 3 3 2 3 3 3 3 2 1 1 1 1 0 0 0 0 1 1 1 1 1 2
7 6 8 9 11 9 3 4 5 6 3 4 4 3 2 2 2 2 5 5 6 5 4 3 3 3 2 3 2 2 2 2 1 1 1 1 1 1 2 2 1 1 2 2
7 8 10 10 11 6 5 6 6 5 2 6 5 4 3 3 3 4 5 6 5 4 3 3 2 2 2 1 1 2 2 2 2 2 2 2 2 2 2 1 1 2 2 2
6 7 7 8 10 5 5 5 3 3 3 4 4 4 4 4 4 4 4 4 4 2 2 2 1 1 1 2 2 2 3 3 3 2 2 2 2 3 2 1 2 2 2 3
5 3 3 3 3 3 5 4 4 2 3 3 3 3 3 2 3 3 4 4 3 2 2 1 1 1 2 2 2 2 2 3 3 2 2 3 3 3 2 2 2 2 2 2
3 2 3 4 2 2 2 2 2 3 3 3 3 3 3 2 2 2 3 2 2 2 2 3 3 3 2 2 2 2 2 2 2 3 3 3 3 2 1 2 1 1 1 1
4 3 2 4 5 5 3 3 3 3 3 2 3 3 3 2 2 2 2 2 2 1 2 2 2 3 3 3 2 2 2 2 2 3 3 3 3 2 1 1 2 1 1 1
5 4 4 4 4 5 3 3 4 4 4 3 2 3 3 3 2 2 1 1 1 1 2 2 2 2 2 2 2 2 2 2 2 3 3 3 3 2 2 1 1 2 1 2
Wind_Direction
233 238 251 247 254 275 293 310 308 253 147 146 128 140 145 152 155 150 153 150 147 144 136 135 138 135 132 133 136 138 145 141 146 155 172 173 176 181 176 166 171 178 197 208
243 244 253 249 245 259 263 262 258 237 192 200 164 161 144 150 160 154 150 146 144 146 143 140 142 143 139 136 137 140 146 148 162 171 175 184 184 192 171 154 153 179 191 212
248 266 264 251 255 265 269 286 292 278 260 238 196 178 151 146 153 152 150 150 148 150 149 144 144 149 145 144 142 141 139 143 159 156 175 179 162 203 174 164 179 196 197 202
241 248 258 260 269 277 283 297 281 268 260 263 258 229 165 159 167 161 156 154 150 149 149 150 149 155 153 147 145 138 136 138 149 167 195 203 182 200 193 190 182 190 196 208
254 250 256 265 273 285 293 288 277 273 266 265 250 236 167 163 164 157 158 156 153 149 151 150 153 155 153 146 146 144 139 149 158 184 194 221 216 213 206 186 187 203 193 211
266 263 260 261 266 270 278 275 269 263 261 255 251 247 161 167 162 158 157 159 150 145 146 148 149 148 154 148 147 146 144 157 172 192 196 210 231 248 242 232 220 233 205 206
244 242 234 246 259 254 271 281 286 278 253 250 240 270 138 139 144 146 140 144 145 149 149 151 150 150 154 149 146 142 144 162 185 196 202 201 221 242 231 239 232 248 232 209
259 237 229 241 255 269 277 279 281 296 296 284 237 145 134 127 124 123 130 142 151 152 153 152 152 152 157 157 155 150 152 173 191 199 200 207 212 237 237 234 253 250 263 252
289 290 250 250 268 272 275 279 291 286 283 280 187 133 147 142 129 126 133 142 147 154 156 153 156 161 167 167 166 165 162 175 194 204 203 210 214 227 255 243 228 265 286 273
273 282 268 245 256 246 260 285 296 296 302 295 284 126 135 139 131 130 136 134 127 139 148 152 154 157 161 165 168 173 172 178 189 200 211 214 205 207 218 255 248 251 300 334
267 271 272 255 250 278 265 270 285 299 304 303 308 50 117 137 144 144 139 131 125 132 134 142 147 148 157 174 175 176 177 176 189 203 205 209 202 203 206 216 236 246 260 275
271 280 277 271 250 281 284 287 288 293 301 295 297 9 109 133 132 139 124 106 98 109 118 123 131 133 141 153 157 164 183 188 188 187 190 199 205 209 211 208 214 225 246 265
301 284 282 270 248 252 277 286 283 285 285 286 288 130 132 121 121 123 116 115 108 97 90 84 83 97 107 107 93 126 144 167 183 186 192 190 196 218 240 226 194 220 231 277
276 265 275 283 289 289 278 282 284 283 286 294 299 181 200 135 118 105 112 114 110 102 92 79 71 77 88 97 84 71 75 98 105 106 154 154 184 217 316 339 319 258 247 265
264 268 271 277 287 289 279 272 271 276 284 290 291 261 209 67 75 99 96 104 100 96 92 81 66 66 62 71 85 82 64 62 70 84 66 63 70 76 50 318 333 308 274 265
254 279 281 274 271 277 274 278 280 283 289 287 290 327 55 42 25 68 120 115 97 92 83 73 66 63 65 58 71 85 79 83 90 92 75 56 73 74 73 329 35 354 286 294
264 269 276 275 275 277 268 284 292 295 308 309 315 3 48 49 15 37 69 89 93 91 87 78 66 52 50 46 49 69 85 102 94 77 62 71 86 73 46 321 357 291 276 289
271 290 276 269 272 269 281 302 310 307 312 325 344 15 9 11 314 69 81 95 102 89 86 76 41 32 41 42 31 21 35 100 119 118 18 36 69 56 20 311 308 289 290 282
250 258 271 273 271 263 270 294 308 298 298 345 359 347 342 350 2 60 57 62 98 94 82 84 71 34 34 39 22 2 347 77 92 50 1 18 346 297 274 262 262 263 249 255
230 230 251 264 271 274 297 329 309 279 255 9 2 346 328 319 300 52 54 62 67 73 71 71 64 54 41 33 15 347 346 359 12 354 330 305 252 253 254 241 249 257 245 254
226 228 238 256 264 262 318 325 309 279 1 21 6 355 356 25 21 55 61 63 56 69 75 68 69 72 75 51 17 345 345 344 340 335 329 324 302 275 248 213 237 243 250 258
253 251 245 253 259 263 340 322 355 26 24 9 4 351 22 46 62 72 75 71 55 47 70 73 62 67 79 67 33 5 0 355 352 348 335 318 303 289 282 234 243 246 252 249
247 261 281 291 291 7 12 24 40 21 1 355 351 1 18 44 52 63 71 73 74 36 22 8 344 46 43 48 35 354 357 1 352 334 323 303 294 285 276 258 251 244 243 274
226 276 287 295 294 332 335 351 7 7 354 355 354 355 352 27 37 40 71 71 64 48 9 357 10 20 21 21 20 1 7 2 336 332 326 308 293 286 285 276 274 270 275 278
320 306 289 283 294 295 316 320 339 348 335 342 356 354 12 16 2 16 72 67 52 34 10 7 9 358 2 18 10 2 5 338 321 316 313 304 296 294 290 311 328 293 291 246
284 283 266 282 302 290 302 325 333 343 332 324 342 1 2 355 359 12 36 52 50 40 21 6 0 354 359 7 356 353 350 343 329 316 306 295 294 288 278 260 301 359 246 219